Weather History for Wheaton NDB, MN

Change the Weather History Date:

Saturday, February 22, 2014

  Actual Average Record
Temperature  
Mean Temperature 12 °F -  
Max Temperature 19 °F 32 °F 57 °F (1961)
Min Temperature 6 °F 14 °F -21 °F (1952)
Degree Days  
Heating Degree Days 52    
Moisture  
Dew Point 5 °F    
Average Humidity 72    
Maximum Humidity 79    
Minimum Humidity 63    
Precipitation  
Precipitation 0.00 in - - ()
Sea Level Pressure  
Sea Level Pressure 30.04 in    
Wind  
Wind Speed 14 mph (WNW)    
Max Wind Speed 22 mph    
Max Gust Speed 26 mph    
Visibility 10 miles    
Events      
Averages and records for this station are not official NWS values.
T = Trace of Precipitation, MM = Missing Value Source: NWS Daily Summary

Daily Weather History Graph

Daily Weather History Graph

Search for Another Location

Airport:

Trip Planner

Search our weather history database for the weather conditions in past years. The results will help you decide how hot, cold, wet, or windy it might be!

Date:

Astronomy

Feb. 22, 2014 Rise Set
Actual Time 7:16 AM CST 6:03 PM CST
Civil Twilight 6:46 AM CST 6:33 PM CST
Nautical Twilight 6:12 AM CST 7:07 PM CST
Astronomical Twilight 5:37 AM CST 7:42 PM CST
Moon 1:20 AM CST (2/22) 11:06 AM CST (2/22)
Length of Visible Light 11h 46m
Length of Day
10h 46m
Waning Gibbous, 50% of the Moon is Illuminated
Feb 22
Waning Gibbous
Mar 1
New
Mar 8
First Quarter
Mar 16
Full
Mar 23
Last Quarter

Hourly Weather History & Observations

Time (CST) Temp. Windchill Dew Point Humidity Pressure Visibility Wind Dir Wind Speed Gust Speed Precip Events Conditions
12:14 AM 10.4 °F -5.4 °F 5.0 °F 79% 29.87 in 10.0 mi WNW 13.8 mph - N/A   Clear
12:34 AM 10.4 °F -3.3 °F 3.2 °F 73% 29.88 in 10.0 mi WNW 10.4 mph - N/A   Clear
12:54 AM 10.4 °F -4.1 °F 3.2 °F 73% 29.88 in 10.0 mi WNW 11.5 mph - N/A   Clear
1:14 AM 8.6 °F -6.3 °F 3.2 °F 79% 29.89 in 10.0 mi West 11.5 mph - N/A   Clear
1:34 AM 8.6 °F -7.0 °F 3.2 °F 79% 29.89 in 10.0 mi WNW 12.7 mph - N/A   Clear
1:54 AM 8.6 °F -6.3 °F 3.2 °F 79% 29.90 in 10.0 mi West 11.5 mph - N/A   Clear
2:14 AM 8.6 °F -5.5 °F 3.2 °F 79% 29.91 in 10.0 mi West 10.4 mph - N/A   Clear
2:34 AM 8.6 °F -6.3 °F 3.2 °F 79% 29.92 in 10.0 mi West 11.5 mph - N/A   Clear
2:54 AM 8.6 °F -5.5 °F 3.2 °F 79% 29.92 in 10.0 mi West 10.4 mph - N/A   Clear
3:14 AM 8.6 °F -7.0 °F 1.4 °F 73% 29.92 in 10.0 mi West 12.7 mph - N/A   Clear
3:34 AM 8.6 °F -6.3 °F 1.4 °F 73% 29.93 in 10.0 mi West 11.5 mph - N/A   Clear
3:54 AM 8.6 °F -6.3 °F 1.4 °F 73% 29.92 in 10.0 mi West 11.5 mph - N/A   Clear
4:14 AM 8.6 °F -8.3 °F 1.4 °F 73% 29.92 in 10.0 mi WNW 15.0 mph 18.4 mph N/A   Clear
4:34 AM 8.6 °F -6.3 °F 1.4 °F 73% 29.93 in 10.0 mi WNW 11.5 mph - N/A   Clear
4:54 AM 6.8 °F -8.6 °F 1.4 °F 79% 29.94 in 10.0 mi West 11.5 mph - N/A   Clear
5:14 AM 6.8 °F -8.6 °F 1.4 °F 79% 29.95 in 10.0 mi West 11.5 mph - N/A   Clear
5:34 AM 6.8 °F -9.3 °F 1.4 °F 79% 29.96 in 10.0 mi WNW 12.7 mph 19.6 mph N/A   Clear
5:54 AM 6.8 °F -9.3 °F 1.4 °F 79% 29.97 in 10.0 mi West 12.7 mph - N/A   Clear
6:14 AM 6.8 °F -10.0 °F 1.4 °F 79% 29.98 in 10.0 mi West 13.8 mph - N/A   Clear
6:34 AM 6.8 °F -10.0 °F 1.4 °F 79% 29.98 in 10.0 mi WNW 13.8 mph - N/A   Clear
6:54 AM 6.8 °F -9.3 °F 1.4 °F 79% 29.97 in 10.0 mi WNW 12.7 mph - N/A   Clear
7:14 AM 6.8 °F -8.6 °F -0.4 °F 72% 29.98 in 10.0 mi WNW 11.5 mph - N/A   Clear
7:34 AM 6.8 °F -9.3 °F -0.4 °F 72% 29.99 in 10.0 mi WNW 12.7 mph - N/A   Clear
7:54 AM 6.8 °F -8.6 °F -0.4 °F 72% 29.99 in 10.0 mi West 11.5 mph - N/A   Clear
8:14 AM 6.8 °F -10.0 °F 1.4 °F 79% 30.00 in 10.0 mi West 13.8 mph - N/A   Clear
8:34 AM 8.6 °F -8.9 °F 1.4 °F 73% 30.01 in 10.0 mi WNW 16.1 mph - N/A   Clear
8:54 AM 8.6 °F -8.9 °F 1.4 °F 73% 30.02 in 10.0 mi WNW 16.1 mph 23.0 mph N/A   Clear
9:15 AM 8.6 °F -9.5 °F 1.4 °F 73% 30.02 in 10.0 mi WNW 17.3 mph - N/A   Clear
9:34 AM 10.4 °F -8.2 °F 1.4 °F 67% 30.02 in 10.0 mi West 19.6 mph 24.2 mph N/A   Clear
9:54 AM 10.4 °F -6.6 °F 1.4 °F 67% 30.02 in 10.0 mi WNW 16.1 mph 23.0 mph N/A   Clear
10:14 AM 10.4 °F -6.6 °F 3.2 °F 73% 30.02 in 10.0 mi WNW 16.1 mph 21.9 mph N/A   Clear
10:34 AM 12.2 °F -3.7 °F 3.2 °F 67% 30.03 in 10.0 mi WNW 15.0 mph - N/A   Clear
10:54 AM 12.2 °F -4.8 °F 3.2 °F 67% 30.03 in 10.0 mi WNW 17.3 mph - N/A   Clear
11:14 AM 14.0 °F -2.5 °F 5.0 °F 67% 30.03 in 10.0 mi WNW 17.3 mph 25.3 mph N/A   Clear
11:34 AM 15.8 °F -1.1 °F 6.8 °F 68% 30.03 in 10.0 mi WNW 19.6 mph 24.2 mph N/A   Clear
11:54 AM 15.8 °F -1.1 °F 6.8 °F 68% 30.04 in 10.0 mi WNW 19.6 mph 24.2 mph N/A   Clear
12:14 PM 15.8 °F -0.6 °F 6.8 °F 68% 30.04 in 10.0 mi WNW 18.4 mph 26.5 mph N/A   Clear
12:34 PM 15.8 °F -1.1 °F 6.8 °F 68% 30.04 in 10.0 mi WNW 19.6 mph 26.5 mph N/A   Clear
12:54 PM 17.6 °F 1.3 °F 8.6 °F 68% 30.04 in 10.0 mi WNW 19.6 mph 26.5 mph N/A   Clear
1:14 PM 17.6 °F 0.9 °F 8.6 °F 68% 30.04 in 10.0 mi WNW 20.7 mph 25.3 mph N/A   Clear
1:34 PM 17.6 °F 2.2 °F 8.6 °F 68% 30.04 in 10.0 mi WNW 17.3 mph 25.3 mph N/A   Clear
1:54 PM 17.6 °F 1.7 °F 8.6 °F 68% 30.04 in 10.0 mi WNW 18.4 mph 25.3 mph N/A   Clear
2:14 PM 17.6 °F 0.9 °F 8.6 °F 68% 30.05 in 10.0 mi WNW 20.7 mph 24.2 mph N/A   Clear
2:34 PM 19.4 °F 4.1 °F 8.6 °F 63% 30.05 in 10.0 mi WNW 18.4 mph 25.3 mph N/A   Scattered Clouds
2:54 PM 17.6 °F 1.3 °F 8.6 °F 68% 30.05 in 10.0 mi WNW 19.6 mph 24.2 mph N/A   Clear
3:14 PM 19.4 °F 2.8 °F 8.6 °F 63% 30.06 in 10.0 mi WNW 21.9 mph 26.5 mph N/A   Clear
3:34 PM 19.4 °F 3.2 °F 8.6 °F 63% 30.06 in 10.0 mi WNW 20.7 mph 26.5 mph N/A   Clear
3:54 PM 19.4 °F 3.6 °F 8.6 °F 63% 30.06 in 10.0 mi WNW 19.6 mph 25.3 mph N/A   Clear
4:14 PM 19.4 °F 3.6 °F 8.6 °F 63% 30.06 in 10.0 mi WNW 19.6 mph 26.5 mph N/A   Clear
4:34 PM 19.4 °F 3.6 °F 8.6 °F 63% 30.06 in 10.0 mi WNW 19.6 mph 26.5 mph N/A   Clear
4:54 PM 19.4 °F 6.0 °F 8.6 °F 63% 30.07 in 10.0 mi WNW 13.8 mph 26.5 mph N/A   Clear
5:14 PM 19.4 °F 4.1 °F 8.6 °F 63% 30.07 in 10.0 mi WNW 18.4 mph 25.3 mph N/A   Clear
5:34 PM 17.6 °F 3.7 °F 8.6 °F 68% 30.08 in 10.0 mi WNW 13.8 mph 19.6 mph N/A   Clear
5:54 PM 17.6 °F 3.7 °F 8.6 °F 68% 30.09 in 10.0 mi WNW 13.8 mph 19.6 mph N/A   Clear
6:14 PM 17.6 °F 2.7 °F 8.6 °F 68% 30.10 in 10.0 mi WNW 16.1 mph 23.0 mph N/A   Clear
6:34 PM 17.6 °F 4.3 °F 8.6 °F 68% 30.11 in 10.0 mi WNW 12.7 mph - N/A   Clear
6:54 PM 15.8 °F 2.7 °F 8.6 °F 73% 30.12 in 10.0 mi WNW 11.5 mph - N/A   Clear
7:14 PM 15.8 °F 0.9 °F 8.6 °F 73% 30.12 in 10.0 mi WNW 15.0 mph 19.6 mph N/A   Clear
7:34 PM 15.8 °F 2.1 °F 6.8 °F 68% 30.13 in 10.0 mi WNW 12.7 mph - N/A   Clear
7:54 PM 14.0 °F 1.2 °F 6.8 °F 73% 30.14 in 10.0 mi WNW 10.4 mph - N/A   Clear
8:14 PM 14.0 °F 2.0 °F 6.8 °F 73% 30.14 in 10.0 mi WNW 9.2 mph - N/A   Clear
8:34 PM 12.2 °F -1.0 °F 6.8 °F 79% 30.15 in 10.0 mi WNW 10.4 mph - N/A   Clear
8:54 PM 12.2 °F -1.0 °F 6.8 °F 79% 30.16 in 10.0 mi WNW 10.4 mph - N/A   Clear
9:14 PM 12.2 °F -1.8 °F 6.8 °F 79% 30.17 in 10.0 mi WNW 11.5 mph - N/A   Clear
9:34 PM 12.2 °F -1.0 °F 5.0 °F 73% 30.18 in 10.0 mi WNW 10.4 mph - N/A   Clear
9:54 PM 10.4 °F -2.4 °F 3.2 °F 73% 30.19 in 10.0 mi WNW 9.2 mph - N/A   Clear
10:14 PM 10.4 °F -1.5 °F 3.2 °F 73% 30.19 in 10.0 mi West 8.1 mph - N/A   Clear
10:34 PM 10.4 °F -1.5 °F 3.2 °F 73% 30.20 in 10.0 mi West 8.1 mph - N/A   Clear
10:54 PM 10.4 °F -2.4 °F 3.2 °F 73% 30.20 in 10.0 mi West 9.2 mph - N/A   Clear
11:15 PM 8.6 °F -3.7 °F 3.2 °F 79% 30.20 in 10.0 mi West 8.1 mph - N/A   Clear
11:34 PM 8.6 °F -4.7 °F 3.2 °F 79% 30.20 in 10.0 mi West 9.2 mph - N/A   Clear
11:54 PM 8.6 °F -3.7 °F 3.2 °F 79% 30.20 in 10.0 mi West 8.1 mph - N/A   Clear